When you browse on this site, cookies collect data to enhance your experience and personalize the content and advertising you see.
Visit our Privacy Policy to learn more. By continuing to use the site, you agree to this use of cookies and data.
  • In United Kingdom
  • List of Countries
  • For 7 days
  • Water Temperature
  • Satellite Maps
  • Weather Map
  • Weather Widgets
  • user-avatar
    Login

    Hourly Weather Maripasoula

    Today, 19 January, Saturday

    Time Temperature Precipitation Wind Pressure Humidity
    00:00 +24°C° 0.2 mm 1 mps 747 mmHg 99%
    01:00 +22°C° 0.2 mm 0 mps 747 mmHg 99%
    02:00 +22°C° 0.2 mm 0 mps 747 mmHg 99%
    03:00 +22°C° 0.4 mm 0 mps 747 mmHg 99%
    04:00 +22°C° 0.4 mm 0 mps 747 mmHg 99%
    05:00 +22°C° 0.4 mm 0 mps 747 mmHg 99%
    06:00 +24°C° 0.1 mm 1 mps 748 mmHg 99%
    07:00 +25°C° 0.1 mm 1 mps 748 mmHg 98%
    08:00 +25°C° 0.1 mm 1 mps 748 mmHg 98%
    09:00 +26°C° 0.2 mm 1 mps 748 mmHg 92%
    10:00 +27°C° 0.2 mm 1 mps 748 mmHg 87%
    11:00 +29°C° 0.2 mm 1 mps 748 mmHg 81%
    12:00 +29°C° 0.5 mm 1 mps 747 mmHg 80%
    13:00 +30°C° 0.5 mm 1 mps 746 mmHg 79%
    14:00 +30°C° 0.5 mm 1 mps 746 mmHg 78%
    15:00 +29°C° 1.6 mm 1 mps 745 mmHg 84%
    16:00 +28°C° 1.6 mm 1 mps 745 mmHg 90%
    17:00 +27°C° 1.6 mm 1 mps 745 mmHg 96%
    18:00 +26°C° 0.4 mm 1 mps 746 mmHg 97%
    19:00 +25°C° 0.4 mm 1 mps 746 mmHg 98%
    20:00 +25°C° 0.4 mm 1 mps 747 mmHg 98%
    21:00 +25°C° 0.1 mm 1 mps 747 mmHg 99%
    22:00 +24°C° 0.1 mm 1 mps 747 mmHg 99%
    23:00 +24°C° 0.1 mm 1 mps 748 mmHg 99%

    Tomorrow, 20 January, Sunday

    Time Temperature Precipitation Wind Pressure Humidity
    00:00 +24°C° 0 mm 1 mps 747 mmHg 99%
    01:00 +24°C° 0 mm 1 mps 747 mmHg 99%
    02:00 +24°C° 0 mm 1 mps 746 mmHg 99%
    03:00 +21°C° 0 mm 0 mps 747 mmHg 99%
    04:00 +21°C° 0 mm 0 mps 747 mmHg 99%
    05:00 +21°C° 0 mm 0 mps 747 mmHg 99%
    06:00 +22°C° 0 mm 0 mps 747 mmHg 98%
    07:00 +23°C° 0 mm 0 mps 748 mmHg 96%
    08:00 +25°C° 0 mm 1 mps 749 mmHg 95%
    09:00 +27°C° 0 mm 1 mps 749 mmHg 82%
    10:00 +30°C° 0 mm 1 mps 748 mmHg 69%
    11:00 +32°C° 0 mm 2 mps 748 mmHg 57%
    12:00 +32°C° 0 mm 2 mps 747 mmHg 54%
    13:00 +34°C° 0 mm 2 mps 747 mmHg 52%
    14:00 +35°C° 0 mm 2 mps 746 mmHg 50%
    15:00 +32°C° 0.3 mm 1 mps 745 mmHg 61%
    16:00 +30°C° 0.3 mm 1 mps 745 mmHg 72%
    17:00 +28°C° 0.3 mm 1 mps 745 mmHg 83%
    18:00 +27°C° 0.4 mm 1 mps 746 mmHg 87%
    19:00 +26°C° 0.4 mm 1 mps 746 mmHg 92%
    20:00 +25°C° 0.4 mm 1 mps 747 mmHg 97%
    21:00 +25°C° 0 mm 1 mps 747 mmHg 98%
    22:00 +24°C° 0 mm 1 mps 748 mmHg 98%
    23:00 +24°C° 0 mm 1 mps 748 mmHg 99%

    Day after tomorrow, 21 January, Monday

    Time Temperature Precipitation Wind Pressure Humidity
    00:00 +24°C° 0 mm 1 mps 747 mmHg 99%
    01:00 +24°C° 0 mm 1 mps 747 mmHg 99%
    02:00 +23°C° 0 mm 1 mps 747 mmHg 99%
    03:00 +23°C° 0 mm 1 mps 747 mmHg 99%
    04:00 +21°C° 0 mm 0 mps 747 mmHg 99%
    05:00 +21°C° 0 mm 0 mps 747 mmHg 99%
    06:00 +24°C° 0 mm 1 mps 748 mmHg 97%
    07:00 +25°C° 0 mm 1 mps 748 mmHg 96%
    08:00 +25°C° 0 mm 1 mps 749 mmHg 94%
    09:00 +28°C° 0.1 mm 1 mps 749 mmHg 83%
    10:00 +30°C° 0.1 mm 2 mps 749 mmHg 72%
    11:00 +32°C° 0.1 mm 2 mps 749 mmHg 61%
    12:00 +32°C° 0 mm 2 mps 748 mmHg 58%
    13:00 +33°C° 0 mm 1 mps 747 mmHg 55%
    14:00 +33°C° 0 mm 1 mps 746 mmHg 52%
    15:00 +32°C° 0.2 mm 1 mps 746 mmHg 61%
    16:00 +30°C° 0.2 mm 1 mps 746 mmHg 70%
    17:00 +29°C° 0.2 mm 1 mps 746 mmHg 79%
    18:00 +28°C° 0.8 mm 1 mps 746 mmHg 85%
    19:00 +26°C° 0.8 mm 1 mps 747 mmHg 91%
    20:00 +25°C° 0.8 mm 1 mps 748 mmHg 97%
    21:00 +25°C° 0 mm 1 mps 748 mmHg 98%
    22:00 +24°C° 0 mm 1 mps 748 mmHg 98%
    23:00 +24°C° 0 mm 1 mps 749 mmHg 99%

    22 January, Tuesday

    Time Temperature Precipitation Wind Pressure Humidity
    00:00 +24°C° 0 mm 1 mps 748 mmHg 99%
    01:00 +24°C° 0 mm 1 mps 748 mmHg 99%
    02:00 +23°C° 0 mm 1 mps 747 mmHg 99%
    03:00 +23°C° 0 mm 1 mps 747 mmHg 99%
    04:00 +24°C° 0 mm 1 mps 747 mmHg 99%
    05:00 +22°C° 0 mm 0 mps 747 mmHg 99%
    06:00 +24°C° 0 mm 1 mps 748 mmHg 98%
    07:00 +25°C° 0 mm 1 mps 748 mmHg 97%
    08:00 +25°C° 0 mm 1 mps 749 mmHg 96%
    09:00 +27°C° 0.1 mm 1 mps 749 mmHg 87%
    10:00 +29°C° 0.1 mm 1 mps 749 mmHg 78%
    11:00 +30°C° 0.1 mm 1 mps 749 mmHg 69%
    12:00 +30°C° 0.6 mm 1 mps 748 mmHg 73%
    13:00 +30°C° 0.6 mm 1 mps 747 mmHg 78%
    14:00 +30°C° 0.6 mm 1 mps 746 mmHg 83%
    15:00 +29°C° 0.7 mm 1 mps 746 mmHg 87%
    16:00 +28°C° 0.7 mm 1 mps 746 mmHg 91%
    17:00 +27°C° 0.7 mm 1 mps 746 mmHg 95%
    18:00 +26°C° 0.2 mm 1 mps 746 mmHg 96%
    19:00 +26°C° 0.2 mm 1 mps 747 mmHg 97%
    20:00 +25°C° 0.2 mm 1 mps 748 mmHg 98%
    21:00 +24°C° 0 mm 1 mps 748 mmHg 98%
    22:00 +24°C° 0 mm 1 mps 748 mmHg 98%
    23:00 +24°C° 0 mm 1 mps 748 mmHg 99%

    23 January, Wednesday

    Time Temperature Precipitation Wind Pressure Humidity
    00:00 +24°C° 0 mm 1 mps 748 mmHg 99%
    01:00 +24°C° 0 mm 1 mps 747 mmHg 99%
    02:00 +21°C° 0 mm 0 mps 747 mmHg 99%
    03:00 +23°C° 0 mm 1 mps 747 mmHg 99%
    04:00 +23°C° 0 mm 1 mps 747 mmHg 99%
    05:00 +23°C° 0 mm 1 mps 747 mmHg 99%
    06:00 +24°C° 0 mm 1 mps 748 mmHg 97%
    07:00 +25°C° 0 mm 1 mps 748 mmHg 95%
    08:00 +25°C° 0 mm 1 mps 749 mmHg 92%
    09:00 +27°C° 0.1 mm 1 mps 749 mmHg 86%
    10:00 +28°C° 0.1 mm 1 mps 749 mmHg 80%
    11:00 +29°C° 0.1 mm 1 mps 749 mmHg 74%
    12:00 +30°C° 0.2 mm 2 mps 748 mmHg 69%
    13:00 +31°C° 0.2 mm 2 mps 747 mmHg 64%
    14:00 +32°C° 0.2 mm 2 mps 746 mmHg 59%
    15:00 +31°C° 0.1 mm 2 mps 746 mmHg 64%
    16:00 +30°C° 0.1 mm 1 mps 746 mmHg 68%
    17:00 +29°C° 0.1 mm 1 mps 746 mmHg 73%
    18:00 +28°C° 0.1 mm 1 mps 746 mmHg 76%
    19:00 +27°C° 0.1 mm 1 mps 747 mmHg 79%
    20:00 +26°C° 0.1 mm 2 mps 747 mmHg 82%
    21:00 +25°C° 0 mm 1 mps 748 mmHg 83%
    22:00 +25°C° 0 mm 1 mps 748 mmHg 85%
    23:00 +25°C° 0 mm 1 mps 748 mmHg 86%

    24 January, Thursday

    Time Temperature Precipitation Wind Pressure Humidity
    00:00 +25°C° 0 mm 1 mps 748 mmHg 87%
    01:00 +24°C° 0 mm 1 mps 747 mmHg 89%
    02:00 +24°C° 0 mm 1 mps 747 mmHg 90%
    03:00 +24°C° 0 mm 1 mps 747 mmHg 92%
    04:00 +23°C° 0 mm 1 mps 747 mmHg 95%
    05:00 +21°C° 0 mm 0 mps 746 mmHg 97%
    06:00 +24°C° 0 mm 1 mps 747 mmHg 91%
    07:00 +26°C° 0 mm 1 mps 747 mmHg 86%
    08:00 +27°C° 0 mm 1 mps 748 mmHg 80%
    09:00 +28°C° 0 mm 2 mps 748 mmHg 73%
    10:00 +30°C° 0 mm 2 mps 748 mmHg 66%
    11:00 +32°C° 0 mm 2 mps 748 mmHg 59%
    12:00 +31°C° 0.9 mm 2 mps 747 mmHg 69%
    13:00 +30°C° 0.9 mm 2 mps 746 mmHg 79%
    14:00 +29°C° 0.9 mm 2 mps 745 mmHg 89%
    15:00 +28°C° 1.2 mm 1 mps 745 mmHg 91%
    16:00 +28°C° 1.2 mm 1 mps 745 mmHg 93%
    17:00 +27°C° 1.2 mm 1 mps 745 mmHg 96%
    18:00 +26°C° 0.7 mm 1 mps 746 mmHg 96%
    19:00 +25°C° 0.7 mm 1 mps 747 mmHg 96%
    20:00 +25°C° 0.7 mm 1 mps 747 mmHg 96%
    21:00 +24°C° 0.1 mm 1 mps 747 mmHg 97%
    22:00 +24°C° 0.1 mm 1 mps 747 mmHg 97%
    23:00 +22°C° 0.1 mm 0 mps 748 mmHg 98%
    Show more